Location: Asheville, NC
(35.6000°N, 82.5500°W)
Time: 11:56:03
(UTC-04:00)

Vanguard 2 Rocket - Pass Details

Date: 12 March 2018
Orbit: 553 x 3328 km, 32.9° (Epoch: 20 June)

Event Time Altitude Azimuth Distance (km) Brightness Sun altitude
Rises 21:51:24 0° 273° (W) 3,138 10.8 -28.1°
Reaches altitude 10° 21:53:24 10° 269° (W) 2,396 9.9 -28.5°
Maximum altitude 21:58:54 62° 189° (S) 1,243 7.4 -29.6°
Enters shadow 21:59:25 60° 170° (S) 1,292 7.4 -29.7°
